Year,Month,Day,Hour,Minute,Value (Times are PST for temperature in C)
2012,05,26,00,00,15.50
2012,05,26,00,01,15.50
2012,05,26,00,02,15.50
2012,05,26,00,03,15.40
2012,05,26,00,04,15.40
2012,05,26,00,05,15.30
2012,05,26,00,06,15.30
2012,05,26,00,07,15.30
2012,05,26,00,08,15.30
2012,05,26,00,09,15.30
2012,05,26,00,10,15.20
2012,05,26,00,11,15.20
2012,05,26,00,12,15.20
2012,05,26,00,13,15.10
2012,05,26,00,14,15.10
2012,05,26,00,15,15.10
2012,05,26,00,16,15.00
2012,05,26,00,17,15.00
2012,05,26,00,18,15.00
2012,05,26,00,19,14.90
2012,05,26,00,20,14.90
2012,05,26,00,21,14.90
2012,05,26,00,22,14.80
2012,05,26,00,23,14.80
2012,05,26,00,24,14.80
2012,05,26,00,25,14.80
2012,05,26,00,26,14.80
2012,05,26,00,27,14.90
2012,05,26,00,28,14.90
2012,05,26,00,29,14.90
2012,05,26,00,30,14.90
2012,05,26,00,31,14.90
2012,05,26,00,32,14.90
2012,05,26,00,33,14.90
2012,05,26,00,34,14.80
2012,05,26,00,35,14.80
2012,05,26,00,36,14.80
2012,05,26,00,37,14.70
2012,05,26,00,38,14.70
2012,05,26,00,39,14.60
2012,05,26,00,40,14.50
2012,05,26,00,41,14.50
2012,05,26,00,42,14.40
2012,05,26,00,43,14.20
2012,05,26,00,44,14.20
2012,05,26,00,45,14.10
2012,05,26,00,46,14.10
2012,05,26,00,47,14.00
2012,05,26,00,48,14.00
2012,05,26,00,49,13.90
2012,05,26,00,50,13.90
2012,05,26,00,51,13.80
2012,05,26,00,52,13.80
2012,05,26,00,53,13.70
2012,05,26,00,54,13.70
2012,05,26,00,55,13.70
2012,05,26,00,56,13.60
2012,05,26,00,57,13.60
2012,05,26,00,58,13.50
2012,05,26,00,59,13.40
2012,05,26,01,00,13.40
2012,05,26,01,01,13.30
2012,05,26,01,02,13.30
2012,05,26,01,03,13.30
2012,05,26,01,04,13.30
2012,05,26,01,05,13.30
2012,05,26,01,06,13.30
2012,05,26,01,07,13.20
2012,05,26,01,08,13.20
2012,05,26,01,09,13.20
2012,05,26,01,10,13.10
2012,05,26,01,11,13.10
2012,05,26,01,12,13.00
2012,05,26,01,13,13.00
2012,05,26,01,14,12.90
2012,05,26,01,15,12.90
2012,05,26,01,16,12.80
2012,05,26,01,17,12.80
2012,05,26,01,18,12.80
2012,05,26,01,19,12.70
2012,05,26,01,20,12.60
2012,05,26,01,21,12.60
2012,05,26,01,22,12.50
2012,05,26,01,23,12.50
2012,05,26,01,24,12.50
2012,05,26,01,25,12.40
2012,05,26,01,26,12.40
2012,05,26,01,27,12.30
2012,05,26,01,28,12.30
2012,05,26,01,29,12.30
2012,05,26,01,30,12.20
2012,05,26,01,31,12.10
2012,05,26,01,32,12.10
2012,05,26,01,33,12.00
2012,05,26,01,34,12.00
2012,05,26,01,35,11.90
2012,05,26,01,36,11.90
2012,05,26,01,37,11.80
2012,05,26,01,38,11.80
2012,05,26,01,39,11.70
2012,05,26,01,40,11.70
2012,05,26,01,41,11.60
2012,05,26,01,42,11.60
2012,05,26,01,43,11.50
2012,05,26,01,44,11.40
2012,05,26,01,45,11.40
2012,05,26,01,46,11.40
2012,05,26,01,47,11.30
2012,05,26,01,48,11.30
2012,05,26,01,49,11.20
2012,05,26,01,50,11.20
2012,05,26,01,51,11.20
2012,05,26,01,52,11.10
2012,05,26,01,53,11.10
2012,05,26,01,54,11.10
2012,05,26,01,55,11.10
2012,05,26,01,56,11.00
2012,05,26,01,57,10.90
2012,05,26,01,58,10.90
2012,05,26,01,59,10.90
2012,05,26,02,00,10.90
2012,05,26,02,01,10.90
2012,05,26,02,02,11.00
2012,05,26,02,03,11.10
2012,05,26,02,04,11.10
2012,05,26,02,05,11.10
2012,05,26,02,06,11.20
2012,05,26,02,07,11.30
2012,05,26,02,08,11.30
2012,05,26,02,09,11.30
2012,05,26,02,10,11.40
2012,05,26,02,11,11.40
2012,05,26,02,12,11.40
2012,05,26,02,13,11.40
2012,05,26,02,14,11.40
2012,05,26,02,15,11.40
2012,05,26,02,16,11.40
2012,05,26,02,17,11.30
2012,05,26,02,18,11.30
2012,05,26,02,19,11.30
2012,05,26,02,20,11.30
2012,05,26,02,21,11.30
2012,05,26,02,22,11.20
2012,05,26,02,23,11.20
2012,05,26,02,24,11.20
2012,05,26,02,25,11.20
2012,05,26,02,26,11.20
2012,05,26,02,27,11.10
2012,05,26,02,28,11.10
2012,05,26,02,29,11.10
2012,05,26,02,30,11.10
2012,05,26,02,31,11.10
2012,05,26,02,32,11.10
2012,05,26,02,33,10.90
2012,05,26,02,34,10.90
2012,05,26,02,35,10.90
2012,05,26,02,36,10.90
2012,05,26,02,37,10.90
2012,05,26,02,38,10.90
2012,05,26,02,39,10.90
2012,05,26,02,40,10.90
2012,05,26,02,41,10.90
2012,05,26,02,42,10.90
2012,05,26,02,43,10.90
2012,05,26,02,44,11.00
2012,05,26,02,45,11.10
2012,05,26,02,46,11.20
2012,05,26,02,47,11.30
2012,05,26,02,48,11.40
2012,05,26,02,49,11.40
2012,05,26,02,50,11.50
2012,05,26,02,51,11.60
2012,05,26,02,52,11.60
2012,05,26,02,53,11.60
2012,05,26,02,54,11.60
2012,05,26,02,55,11.60
2012,05,26,02,56,11.70
2012,05,26,02,57,11.70
2012,05,26,02,58,11.70
2012,05,26,02,59,11.70
2012,05,26,03,00,11.70
2012,05,26,03,01,11.70
2012,05,26,03,02,11.70
2012,05,26,03,03,11.70
2012,05,26,03,04,11.70
2012,05,26,03,05,11.70
2012,05,26,03,06,11.70
2012,05,26,03,07,11.70
2012,05,26,03,08,11.80
2012,05,26,03,09,11.80
2012,05,26,03,10,11.80
2012,05,26,03,11,11.80
2012,05,26,03,12,11.80
2012,05,26,03,13,11.80
2012,05,26,03,14,11.80
2012,05,26,03,15,11.70
2012,05,26,03,16,11.70
2012,05,26,03,17,11.70
2012,05,26,03,18,11.70
2012,05,26,03,19,11.60
2012,05,26,03,20,11.60
2012,05,26,03,21,11.60
2012,05,26,03,22,11.60
2012,05,26,03,23,11.60
2012,05,26,03,24,11.60
2012,05,26,03,25,11.50
2012,05,26,03,26,11.40
2012,05,26,03,27,11.40
2012,05,26,03,28,11.40
2012,05,26,03,29,11.40
2012,05,26,03,30,11.40
2012,05,26,03,31,11.30
2012,05,26,03,32,11.30
2012,05,26,03,33,11.20
2012,05,26,03,34,11.20
2012,05,26,03,35,11.20
2012,05,26,03,36,11.10
2012,05,26,03,37,11.10
2012,05,26,03,38,11.10
2012,05,26,03,39,11.10
2012,05,26,03,40,11.00
2012,05,26,03,41,10.90
2012,05,26,03,42,10.90
2012,05,26,03,43,10.80
2012,05,26,03,44,10.80
2012,05,26,03,45,10.70
2012,05,26,03,46,10.70
2012,05,26,03,47,10.60
2012,05,26,03,48,10.60
2012,05,26,03,49,10.60
2012,05,26,03,50,10.50
2012,05,26,03,51,10.40
2012,05,26,03,52,10.40
2012,05,26,03,53,10.40
2012,05,26,03,54,10.30
2012,05,26,03,55,10.30
2012,05,26,03,56,10.20
2012,05,26,03,57,10.20
2012,05,26,03,58,10.10
2012,05,26,03,59,10.10
2012,05,26,04,00,10.10
2012,05,26,04,01,10.10
2012,05,26,04,02,10.00
2012,05,26,04,03,9.90
2012,05,26,04,04,9.90
2012,05,26,04,05,9.90
2012,05,26,04,06,9.90
2012,05,26,04,07,9.90
2012,05,26,04,08,9.90
2012,05,26,04,09,9.90
2012,05,26,04,10,9.90
2012,05,26,04,11,9.90
2012,05,26,04,12,9.90
2012,05,26,04,13,9.90
2012,05,26,04,14,9.90
2012,05,26,04,15,9.90
2012,05,26,04,16,9.90
2012,05,26,04,17,10.10
2012,05,26,04,18,10.10
2012,05,26,04,19,10.10
2012,05,26,04,20,10.10
2012,05,26,04,21,10.10
2012,05,26,04,22,10.10
2012,05,26,04,23,10.10
2012,05,26,04,24,10.10
2012,05,26,04,25,10.10
2012,05,26,04,26,10.10
2012,05,26,04,27,10.10
2012,05,26,04,28,10.10
2012,05,26,04,29,10.10
2012,05,26,04,30,10.10
2012,05,26,04,31,10.10
2012,05,26,04,32,10.10
2012,05,26,04,33,10.10
2012,05,26,04,34,10.10
2012,05,26,04,35,10.10
2012,05,26,04,36,10.10
2012,05,26,04,37,10.10
2012,05,26,04,38,10.10
2012,05,26,04,39,10.00
2012,05,26,04,40,9.90
2012,05,26,04,41,9.90
2012,05,26,04,42,9.90
2012,05,26,04,43,9.90
2012,05,26,04,44,9.90
2012,05,26,04,45,9.90
2012,05,26,04,46,9.90
2012,05,26,04,47,9.80
2012,05,26,04,48,9.80
2012,05,26,04,49,9.80
2012,05,26,04,50,9.70
2012,05,26,04,51,9.70
2012,05,26,04,52,9.70
2012,05,26,04,53,9.70
2012,05,26,04,54,9.60
2012,05,26,04,55,9.60
2012,05,26,04,56,9.60
2012,05,26,04,57,9.60
2012,05,26,04,58,9.60
2012,05,26,04,59,9.60
2012,05,26,05,00,9.60
2012,05,26,05,01,9.70
2012,05,26,05,02,9.70
2012,05,26,05,03,9.80
2012,05,26,05,04,9.90
2012,05,26,05,05,10.00
2012,05,26,05,06,10.10
2012,05,26,05,07,10.10
2012,05,26,05,08,10.20
2012,05,26,05,09,10.30
2012,05,26,05,10,10.40
2012,05,26,05,11,10.40
2012,05,26,05,12,10.60
2012,05,26,05,13,10.70
2012,05,26,05,14,10.80
2012,05,26,05,15,10.90
2012,05,26,05,16,11.00
2012,05,26,05,17,11.10
2012,05,26,05,18,11.20
2012,05,26,05,19,11.20
2012,05,26,05,20,11.30
2012,05,26,05,21,11.40
2012,05,26,05,22,11.50
2012,05,26,05,23,11.60
2012,05,26,05,24,11.60
2012,05,26,05,25,11.60
2012,05,26,05,26,11.60
2012,05,26,05,27,11.70
2012,05,26,05,28,11.70
2012,05,26,05,29,11.70
2012,05,26,05,30,11.70
2012,05,26,05,31,11.70
2012,05,26,05,32,11.70
2012,05,26,05,33,11.60
2012,05,26,05,34,11.50
2012,05,26,05,35,11.40
2012,05,26,05,36,11.30
2012,05,26,05,37,11.20
2012,05,26,05,38,11.10
2012,05,26,05,39,11.00
2012,05,26,05,40,10.90
2012,05,26,05,41,10.80
2012,05,26,05,42,10.70
2012,05,26,05,43,10.60
2012,05,26,05,44,10.60
2012,05,26,05,45,10.50
2012,05,26,05,46,10.40
2012,05,26,05,47,10.30
2012,05,26,05,48,10.30
2012,05,26,05,49,10.20
2012,05,26,05,50,10.20
2012,05,26,05,51,10.10
2012,05,26,05,52,10.10
2012,05,26,05,53,10.00
2012,05,26,05,54,9.90
2012,05,26,05,55,9.90
2012,05,26,05,56,9.90
2012,05,26,05,57,9.80
2012,05,26,05,58,9.80
2012,05,26,05,59,9.70
2012,05,26,06,00,9.70
2012,05,26,06,01,9.70
2012,05,26,06,02,9.70
2012,05,26,06,03,9.70
2012,05,26,06,04,9.60
2012,05,26,06,05,9.60
2012,05,26,06,06,9.50
2012,05,26,06,07,9.50
2012,05,26,06,08,9.50
2012,05,26,06,09,9.40
2012,05,26,06,10,9.40
2012,05,26,06,11,9.40
2012,05,26,06,12,9.40
2012,05,26,06,13,9.30
2012,05,26,06,14,9.30
2012,05,26,06,15,9.30
2012,05,26,06,16,9.30
2012,05,26,06,17,9.30
2012,05,26,06,18,9.30
2012,05,26,06,19,9.30
2012,05,26,06,20,9.30
2012,05,26,06,21,9.30
2012,05,26,06,22,9.30
2012,05,26,06,23,9.30
2012,05,26,06,24,9.40
2012,05,26,06,25,9.40
2012,05,26,06,26,9.40
2012,05,26,06,27,9.40
2012,05,26,06,28,9.50
2012,05,26,06,29,9.50
2012,05,26,06,30,9.50
2012,05,26,06,31,9.60
2012,05,26,06,32,9.60
2012,05,26,06,33,9.70
2012,05,26,06,34,9.70
2012,05,26,06,35,9.70
2012,05,26,06,36,9.70
2012,05,26,06,37,9.70
2012,05,26,06,38,9.80
2012,05,26,06,39,9.80
2012,05,26,06,40,9.90
2012,05,26,06,41,9.90
2012,05,26,06,42,10.00
2012,05,26,06,43,10.10
2012,05,26,06,44,10.10
2012,05,26,06,45,10.20
2012,05,26,06,46,10.20
2012,05,26,06,47,10.30
2012,05,26,06,48,10.40
2012,05,26,06,49,10.40
2012,05,26,06,50,10.40
2012,05,26,06,51,10.50
2012,05,26,06,52,10.60
2012,05,26,06,53,10.60
2012,05,26,06,54,10.60
2012,05,26,06,55,10.70
2012,05,26,06,56,10.80
2012,05,26,06,57,10.80
2012,05,26,06,58,10.90
2012,05,26,06,59,10.90
2012,05,26,07,00,10.90
2012,05,26,07,01,11.00
2012,05,26,07,02,11.10
2012,05,26,07,03,11.10
2012,05,26,07,04,11.10
2012,05,26,07,05,11.10
2012,05,26,07,06,11.20
2012,05,26,07,07,11.20
2012,05,26,07,08,11.30
2012,05,26,07,09,11.40
2012,05,26,07,10,11.50
2012,05,26,07,11,11.60
2012,05,26,07,12,11.70
2012,05,26,07,13,11.80
2012,05,26,07,14,11.90
2012,05,26,07,15,12.00
2012,05,26,07,16,12.10
2012,05,26,07,17,12.20
2012,05,26,07,18,12.30
2012,05,26,07,19,12.40
2012,05,26,07,20,12.50
2012,05,26,07,21,12.50
2012,05,26,07,22,12.60
2012,05,26,07,23,12.70
2012,05,26,07,24,12.80
2012,05,26,07,25,12.80
2012,05,26,07,26,12.80
2012,05,26,07,27,12.90
2012,05,26,07,28,12.90
2012,05,26,07,29,13.00
2012,05,26,07,30,13.00
2012,05,26,07,31,13.00
2012,05,26,07,32,13.10
2012,05,26,07,33,13.10
2012,05,26,07,34,13.20
2012,05,26,07,35,13.20
2012,05,26,07,36,13.30
2012,05,26,07,37,13.30
2012,05,26,07,38,13.30
2012,05,26,07,39,13.40
2012,05,26,07,40,13.40
2012,05,26,07,41,13.50
2012,05,26,07,42,13.50
2012,05,26,07,43,13.60
2012,05,26,07,44,13.70
2012,05,26,07,45,13.70
2012,05,26,07,46,13.70
2012,05,26,07,47,13.70
2012,05,26,07,48,13.70
2012,05,26,07,49,13.70
2012,05,26,07,50,13.70
2012,05,26,07,51,13.70
2012,05,26,07,52,13.80
2012,05,26,07,53,13.80
2012,05,26,07,54,13.90
2012,05,26,07,55,13.90
2012,05,26,07,56,14.00
2012,05,26,07,57,14.00
2012,05,26,07,58,14.10
2012,05,26,07,59,14.10
2012,05,26,08,00,14.20
2012,05,26,08,01,14.20
2012,05,26,08,02,14.30
2012,05,26,08,03,14.40
2012,05,26,08,04,14.50
2012,05,26,08,05,14.60
2012,05,26,08,06,14.80
2012,05,26,08,07,14.80
2012,05,26,08,08,14.90
2012,05,26,08,09,15.00
2012,05,26,08,10,15.10
2012,05,26,08,11,15.10
2012,05,26,08,12,15.20
2012,05,26,08,13,15.20
2012,05,26,08,14,15.30
2012,05,26,08,15,15.30
2012,05,26,08,16,15.30
2012,05,26,08,17,15.30
2012,05,26,08,18,15.30
2012,05,26,08,19,15.40
2012,05,26,08,20,15.40
2012,05,26,08,21,15.40
2012,05,26,08,22,15.50
2012,05,26,08,23,15.50
2012,05,26,08,24,15.50
2012,05,26,08,25,15.50
2012,05,26,08,26,15.60
2012,05,26,08,27,15.70
2012,05,26,08,28,15.80
2012,05,26,08,29,15.80
2012,05,26,08,30,15.90
2012,05,26,08,31,15.90
2012,05,26,08,32,15.90
2012,05,26,08,33,16.10
2012,05,26,08,34,16.10
2012,05,26,08,35,16.20
2012,05,26,08,36,16.30
2012,05,26,08,37,16.40
2012,05,26,08,38,16.40
2012,05,26,08,39,16.50
2012,05,26,08,40,16.60
2012,05,26,08,41,16.60
2012,05,26,08,42,16.60
2012,05,26,08,43,16.50
2012,05,26,08,44,16.60
2012,05,26,08,45,16.60
2012,05,26,08,46,16.60
2012,05,26,08,47,16.70
2012,05,26,08,48,16.70
2012,05,26,08,49,16.70
2012,05,26,08,50,16.70
2012,05,26,08,51,16.70
2012,05,26,08,52,16.80
2012,05,26,08,53,16.90
2012,05,26,08,54,17.00
2012,05,26,08,55,17.10
2012,05,26,08,56,17.10
2012,05,26,08,57,17.10
2012,05,26,08,58,17.20
2012,05,26,08,59,17.20
2012,05,26,09,00,17.30
2012,05,26,09,01,17.30
2012,05,26,09,02,17.20
2012,05,26,09,03,17.30
2012,05,26,09,04,17.30
2012,05,26,09,05,17.30
2012,05,26,09,06,17.40
2012,05,26,09,07,17.40
2012,05,26,09,08,17.40
2012,05,26,09,09,17.50
2012,05,26,09,10,17.50
2012,05,26,09,11,17.50
2012,05,26,09,12,17.50
2012,05,26,09,13,17.50
2012,05,26,09,14,17.50
2012,05,26,09,15,17.50
2012,05,26,09,16,17.50
2012,05,26,09,17,17.40
2012,05,26,09,18,17.40
2012,05,26,09,19,17.30
2012,05,26,09,20,17.30
2012,05,26,09,21,17.30
2012,05,26,09,22,17.40
2012,05,26,09,23,17.50
2012,05,26,09,24,17.50
2012,05,26,09,25,17.50
2012,05,26,09,26,17.60
2012,05,26,09,27,17.60
2012,05,26,09,28,17.70
2012,05,26,09,29,17.80
2012,05,26,09,30,17.90
2012,05,26,09,31,17.90
2012,05,26,09,32,18.10
2012,05,26,09,33,18.20
2012,05,26,09,34,18.20
2012,05,26,09,35,18.40
2012,05,26,09,36,18.50
2012,05,26,09,37,18.60
2012,05,26,09,38,18.60
2012,05,26,09,39,18.70
2012,05,26,09,40,18.80
2012,05,26,09,41,18.90
2012,05,26,09,42,18.90
2012,05,26,09,43,18.90
2012,05,26,09,44,19.10
2012,05,26,09,45,19.10
2012,05,26,09,46,19.10
2012,05,26,09,47,19.20
2012,05,26,09,48,19.30
2012,05,26,09,49,19.30
2012,05,26,09,50,19.20
2012,05,26,09,51,19.20
2012,05,26,09,52,19.30
2012,05,26,09,53,19.20
2012,05,26,09,54,19.30
2012,05,26,09,55,19.30
2012,05,26,09,56,19.30
2012,05,26,09,57,19.30
2012,05,26,09,58,19.30
2012,05,26,09,59,19.30
2012,05,26,10,00,19.30
2012,05,26,10,01,19.30
2012,05,26,10,02,19.30
2012,05,26,10,03,19.30
2012,05,26,10,04,19.30
2012,05,26,10,05,19.20
2012,05,26,10,06,19.30
2012,05,26,10,07,19.30
2012,05,26,10,08,19.40
2012,05,26,10,09,19.50
2012,05,26,10,10,19.50
2012,05,26,10,11,19.60
2012,05,26,10,12,19.60
2012,05,26,10,13,19.60
2012,05,26,10,14,19.60
2012,05,26,10,15,19.60
2012,05,26,10,16,19.60
2012,05,26,10,17,19.60
2012,05,26,10,18,19.70
2012,05,26,10,19,19.70
2012,05,26,10,20,19.70
2012,05,26,10,21,19.70
2012,05,26,10,22,19.60
2012,05,26,10,23,19.60
2012,05,26,10,24,19.70
2012,05,26,10,25,19.70
2012,05,26,10,26,19.80
2012,05,26,10,27,19.90
2012,05,26,10,28,19.90
2012,05,26,10,29,19.80
2012,05,26,10,30,19.80
2012,05,26,10,31,19.80
2012,05,26,10,32,19.80
2012,05,26,10,33,19.90
2012,05,26,10,34,20.00
2012,05,26,10,35,20.10
2012,05,26,10,36,20.10
2012,05,26,10,37,20.20
2012,05,26,10,38,20.20
2012,05,26,10,39,20.20
2012,05,26,10,40,20.10
2012,05,26,10,41,20.10
2012,05,26,10,42,20.10
2012,05,26,10,43,20.00
2012,05,26,10,44,19.90
2012,05,26,10,45,19.90
2012,05,26,10,46,19.90
2012,05,26,10,47,19.90
2012,05,26,10,48,19.90
2012,05,26,10,49,19.80
2012,05,26,10,50,19.80
2012,05,26,10,51,19.80
2012,05,26,10,52,19.90
2012,05,26,10,53,19.90
2012,05,26,10,54,20.00
2012,05,26,10,55,20.10
2012,05,26,10,56,20.10
2012,05,26,10,57,20.20
2012,05,26,10,58,20.20
2012,05,26,10,59,20.30
2012,05,26,11,00,20.30
2012,05,26,11,01,20.30
2012,05,26,11,02,20.10
2012,05,26,11,03,20.10
2012,05,26,11,04,20.10
2012,05,26,11,05,20.10
2012,05,26,11,06,20.10
2012,05,26,11,07,20.20
2012,05,26,11,08,20.40
2012,05,26,11,09,20.40
2012,05,26,11,10,20.30
2012,05,26,11,11,20.30
2012,05,26,11,12,20.40
2012,05,26,11,13,20.30
2012,05,26,11,14,20.30
2012,05,26,11,15,20.40
2012,05,26,11,16,20.50
2012,05,26,11,17,20.60
2012,05,26,11,18,20.80
2012,05,26,11,19,20.90
2012,05,26,11,20,20.80
2012,05,26,11,21,20.80
2012,05,26,11,22,20.90
2012,05,26,11,23,20.80
2012,05,26,11,24,20.70
2012,05,26,11,25,20.60
2012,05,26,11,26,20.50
2012,05,26,11,27,20.50
2012,05,26,11,28,20.60
2012,05,26,11,29,20.60
2012,05,26,11,30,20.70
2012,05,26,11,31,20.80
2012,05,26,11,32,20.80
2012,05,26,11,33,21.00
2012,05,26,11,34,21.20
2012,05,26,11,35,21.20
2012,05,26,11,36,21.20
2012,05,26,11,37,21.10
2012,05,26,11,38,21.10
2012,05,26,11,39,21.20
2012,05,26,11,40,21.20
2012,05,26,11,41,21.10
2012,05,26,11,42,21.00
2012,05,26,11,43,21.00
2012,05,26,11,44,21.10
2012,05,26,11,45,21.10
2012,05,26,11,46,21.10
2012,05,26,11,47,21.00
2012,05,26,11,48,20.90
2012,05,26,11,49,21.00
2012,05,26,11,50,21.00
2012,05,26,11,51,21.10
2012,05,26,11,52,21.30
2012,05,26,11,53,21.20
2012,05,26,11,54,21.10
2012,05,26,11,55,21.20
2012,05,26,11,56,21.30
2012,05,26,11,57,21.50
2012,05,26,11,58,21.60
2012,05,26,11,59,21.60
2012,05,26,12,00,21.60
2012,05,26,12,01,21.60
2012,05,26,12,02,21.60
2012,05,26,12,03,21.50
2012,05,26,12,04,21.50
2012,05,26,12,05,21.60
2012,05,26,12,06,21.60
2012,05,26,12,07,21.70
2012,05,26,12,08,21.90
2012,05,26,12,09,22.00
2012,05,26,12,10,22.00
2012,05,26,12,11,22.00
2012,05,26,12,12,21.90
2012,05,26,12,13,21.90
2012,05,26,12,14,22.00
2012,05,26,12,15,21.90
2012,05,26,12,16,21.80
2012,05,26,12,17,21.80
2012,05,26,12,18,21.70
2012,05,26,12,19,21.70
2012,05,26,12,20,21.70
2012,05,26,12,21,21.90
2012,05,26,12,22,21.90
2012,05,26,12,23,21.90
2012,05,26,12,24,21.90
2012,05,26,12,25,21.70
2012,05,26,12,26,21.60
2012,05,26,12,27,21.60
2012,05,26,12,28,21.40
2012,05,26,12,29,21.30
2012,05,26,12,30,21.10
2012,05,26,12,31,20.90
2012,05,26,12,32,20.90
2012,05,26,12,33,21.00
2012,05,26,12,34,21.10
2012,05,26,12,35,21.10
2012,05,26,12,36,21.10
2012,05,26,12,37,21.10
2012,05,26,12,38,20.90
2012,05,26,12,39,20.80
2012,05,26,12,40,20.70
2012,05,26,12,41,20.50
2012,05,26,12,42,20.40
2012,05,26,12,43,20.30
2012,05,26,12,44,20.20
2012,05,26,12,45,20.20
2012,05,26,12,46,20.20
2012,05,26,12,47,20.20
2012,05,26,12,48,20.20
2012,05,26,12,49,20.10
2012,05,26,12,50,20.10
2012,05,26,12,51,20.10
2012,05,26,12,52,20.10
2012,05,26,12,53,20.20
2012,05,26,12,54,20.40
2012,05,26,12,55,20.40
2012,05,26,12,56,20.40
2012,05,26,12,57,20.40
2012,05,26,12,58,20.40
2012,05,26,12,59,20.50
2012,05,26,13,00,20.50
2012,05,26,13,01,20.40
2012,05,26,13,02,20.20
2012,05,26,13,03,20.10
2012,05,26,13,04,20.20
2012,05,26,13,05,20.10
2012,05,26,13,06,20.10
2012,05,26,13,07,20.20
2012,05,26,13,08,20.40
2012,05,26,13,09,20.50
2012,05,26,13,10,20.50
2012,05,26,13,11,20.50
2012,05,26,13,12,20.50
2012,05,26,13,13,20.50
2012,05,26,13,14,20.40
2012,05,26,13,15,20.10
2012,05,26,13,16,20.00
2012,05,26,13,17,19.90
2012,05,26,13,18,19.90
2012,05,26,13,19,19.90
2012,05,26,13,20,19.90
2012,05,26,13,21,20.10
2012,05,26,13,22,20.30
2012,05,26,13,23,20.50
2012,05,26,13,24,20.70
2012,05,26,13,25,20.80
2012,05,26,13,26,20.80
2012,05,26,13,27,20.90
2012,05,26,13,28,20.70
2012,05,26,13,29,20.50
2012,05,26,13,30,20.60
2012,05,26,13,31,20.60
2012,05,26,13,32,20.70
2012,05,26,13,33,20.70
2012,05,26,13,34,20.70
2012,05,26,13,35,20.70
2012,05,26,13,36,20.60
2012,05,26,13,37,20.50
2012,05,26,13,38,20.50
2012,05,26,13,39,20.50
2012,05,26,13,40,20.50
2012,05,26,13,41,20.40
2012,05,26,13,42,20.50
2012,05,26,13,43,20.50
2012,05,26,13,44,20.60
2012,05,26,13,45,20.60
2012,05,26,13,46,20.50
2012,05,26,13,47,20.50
2012,05,26,13,48,20.70
2012,05,26,13,49,20.70
2012,05,26,13,50,20.60
2012,05,26,13,51,20.60
2012,05,26,13,52,20.50
2012,05,26,13,53,20.60
2012,05,26,13,54,20.70
2012,05,26,13,55,20.80
2012,05,26,13,56,20.80
2012,05,26,13,57,20.80
2012,05,26,13,58,20.70
2012,05,26,13,59,20.70
2012,05,26,14,00,20.80
2012,05,26,14,01,20.90
2012,05,26,14,02,21.00
2012,05,26,14,03,21.10
2012,05,26,14,04,21.00
2012,05,26,14,05,21.00
2012,05,26,14,06,20.90
2012,05,26,14,07,20.80
2012,05,26,14,08,20.80
2012,05,26,14,09,20.80
2012,05,26,14,10,20.90
2012,05,26,14,11,21.00
2012,05,26,14,12,21.10
2012,05,26,14,13,21.10
2012,05,26,14,14,21.10
2012,05,26,14,15,21.20
2012,05,26,14,16,21.30
2012,05,26,14,17,21.40
2012,05,26,14,18,21.50
2012,05,26,14,19,21.60
2012,05,26,14,20,21.40
2012,05,26,14,21,21.40
2012,05,26,14,22,21.60
2012,05,26,14,23,21.60
2012,05,26,14,24,21.50
2012,05,26,14,25,21.30
2012,05,26,14,26,21.30
2012,05,26,14,27,21.30
2012,05,26,14,28,21.30
2012,05,26,14,29,21.30
2012,05,26,14,30,21.40
2012,05,26,14,31,21.30
2012,05,26,14,32,21.30
2012,05,26,14,33,21.40
2012,05,26,14,34,21.60
2012,05,26,14,35,21.70
2012,05,26,14,36,21.70
2012,05,26,14,37,21.70
2012,05,26,14,38,21.60
2012,05,26,14,39,21.50
2012,05,26,14,40,21.40
2012,05,26,14,41,21.40
2012,05,26,14,42,21.40
2012,05,26,14,43,21.50
2012,05,26,14,44,21.60
2012,05,26,14,45,21.60
2012,05,26,14,46,21.60
2012,05,26,14,47,21.60
2012,05,26,14,48,21.50
2012,05,26,14,49,21.40
2012,05,26,14,50,21.40
2012,05,26,14,51,21.60
2012,05,26,14,52,21.60
2012,05,26,14,53,21.60
2012,05,26,14,54,21.70
2012,05,26,14,55,21.90
2012,05,26,14,56,22.00
2012,05,26,14,57,22.00
2012,05,26,14,58,22.10
2012,05,26,14,59,22.20
2012,05,26,15,00,22.20
2012,05,26,15,01,22.20
2012,05,26,15,02,22.10
2012,05,26,15,03,22.20
2012,05,26,15,04,22.10
2012,05,26,15,05,22.20
2012,05,26,15,06,22.20
2012,05,26,15,07,22.30
2012,05,26,15,08,22.40
2012,05,26,15,09,22.30
2012,05,26,15,10,22.30
2012,05,26,15,11,22.40
2012,05,26,15,12,22.30
2012,05,26,15,13,22.30
2012,05,26,15,14,22.30
2012,05,26,15,15,22.40
2012,05,26,15,16,22.40
2012,05,26,15,17,22.50
2012,05,26,15,18,22.60
2012,05,26,15,19,22.60
2012,05,26,15,20,22.60
2012,05,26,15,21,22.70
2012,05,26,15,22,22.70
2012,05,26,15,23,22.70
2012,05,26,15,24,22.70
2012,05,26,15,25,22.70
2012,05,26,15,26,22.70
2012,05,26,15,27,22.60
2012,05,26,15,28,22.50
2012,05,26,15,29,22.40
2012,05,26,15,30,22.50
2012,05,26,15,31,22.50
2012,05,26,15,32,22.50
2012,05,26,15,33,22.60
2012,05,26,15,34,22.60
2012,05,26,15,35,22.50
2012,05,26,15,36,22.60
2012,05,26,15,37,22.60
2012,05,26,15,38,22.60
2012,05,26,15,39,22.60
2012,05,26,15,40,22.50
2012,05,26,15,41,22.40
2012,05,26,15,42,22.40
2012,05,26,15,43,22.50
2012,05,26,15,44,22.40
2012,05,26,15,45,22.40
2012,05,26,15,46,22.30
2012,05,26,15,47,22.20
2012,05,26,15,48,22.10
2012,05,26,15,49,22.10
2012,05,26,15,50,22.00
2012,05,26,15,51,22.00
2012,05,26,15,52,22.10
2012,05,26,15,53,22.20
2012,05,26,15,54,22.30
2012,05,26,15,55,22.40
2012,05,26,15,56,22.50
2012,05,26,15,57,22.70
2012,05,26,15,58,22.80
2012,05,26,15,59,22.90
2012,05,26,16,00,23.10
2012,05,26,16,01,23.30
2012,05,26,16,02,23.40
2012,05,26,16,03,23.60
2012,05,26,16,04,23.80
2012,05,26,16,05,23.90
2012,05,26,16,06,24.10
2012,05,26,16,07,24.20
2012,05,26,16,08,24.20
2012,05,26,16,09,24.20
2012,05,26,16,10,24.20
2012,05,26,16,11,24.40
2012,05,26,16,12,24.50
2012,05,26,16,13,24.60
2012,05,26,16,14,24.70
2012,05,26,16,15,24.80
2012,05,26,16,16,24.70
2012,05,26,16,17,24.60
2012,05,26,16,18,24.60
2012,05,26,16,19,24.50
2012,05,26,16,20,24.50
2012,05,26,16,21,24.60
2012,05,26,16,22,24.60
2012,05,26,16,23,24.60
2012,05,26,16,24,24.50
2012,05,26,16,25,24.50
2012,05,26,16,26,24.50
2012,05,26,16,27,24.60
2012,05,26,16,28,24.60
2012,05,26,16,29,24.70
2012,05,26,16,30,24.80
2012,05,26,16,31,24.80
2012,05,26,16,32,24.90
2012,05,26,16,33,24.90
2012,05,26,16,34,24.80
2012,05,26,16,35,24.70
2012,05,26,16,36,24.70
2012,05,26,16,37,24.70
2012,05,26,16,38,24.80
2012,05,26,16,39,24.80
2012,05,26,16,40,24.80
2012,05,26,16,41,24.80
2012,05,26,16,42,24.70
2012,05,26,16,43,24.60
2012,05,26,16,44,24.60
2012,05,26,16,45,24.60
2012,05,26,16,46,24.60
2012,05,26,16,47,24.70
2012,05,26,16,48,24.70
2012,05,26,16,49,24.80
2012,05,26,16,50,24.90
2012,05,26,16,51,24.80
2012,05,26,16,52,24.80
2012,05,26,16,53,24.80
2012,05,26,16,54,24.70
2012,05,26,16,55,24.60
2012,05,26,16,56,24.50
2012,05,26,16,57,24.50
2012,05,26,16,58,24.60
2012,05,26,16,59,24.70
2012,05,26,17,00,24.80
2012,05,26,17,01,24.80
2012,05,26,17,02,24.80
2012,05,26,17,03,24.80
2012,05,26,17,04,24.70
2012,05,26,17,05,24.70
2012,05,26,17,06,24.70
2012,05,26,17,07,24.70
2012,05,26,17,08,24.70
2012,05,26,17,09,24.70
2012,05,26,17,10,24.60
2012,05,26,17,11,24.60
2012,05,26,17,12,24.60
2012,05,26,17,13,24.70
2012,05,26,17,14,24.80
2012,05,26,17,15,24.80
2012,05,26,17,16,24.70
2012,05,26,17,17,24.70
2012,05,26,17,18,24.70
2012,05,26,17,19,24.60
2012,05,26,17,20,24.60
2012,05,26,17,21,24.50
2012,05,26,17,22,24.40
2012,05,26,17,23,24.20